Time,TemperatureF,DewpointF,PressureIn,WindDirection,WindDirectionDegrees,WindSpeedMPH,WindSpeedGustMPH,Humidity,HourlyPrecipIn,Conditions,Clouds,dailyrainin,SoftwareType,DateUTC
2013-05-15 00:00:00,60.3,57.3,29.71,NE,48,0.0,2.2,90,0.00,,,0.00,VWS V14.01,2013-05-15 04:00:00,
2013-05-15 00:05:00,60.3,56.6,29.71,NE,49,0.0,0.0,87,0.00,,,0.00,VWS V14.01,2013-05-15 04:05:00,
2013-05-15 00:10:00,60.9,56.4,29.71,NNE,31,4.9,4.9,85,0.00,,,0.00,VWS V14.01,2013-05-15 04:10:00,
2013-05-15 00:15:00,60.9,56.4,29.71,NE,41,3.6,4.9,85,0.00,,,0.00,VWS V14.01,2013-05-15 04:15:00,
2013-05-15 00:20:00,60.9,56.4,29.71,NE,38,3.1,3.1,85,0.00,,,0.00,VWS V14.01,2013-05-15 04:20:00,
2013-05-15 00:26:00,61.2,56.7,29.71,NE,52,3.1,3.1,85,0.00,,,0.00,VWS V14.01,2013-05-15 04:26:00,
2013-05-15 00:30:00,61.1,56.6,29.71,NE,35,2.7,3.1,85,0.00,,,0.00,VWS V14.01,2013-05-15 04:30:00,
2013-05-15 00:31:00,61.1,56.6,29.71,NNE,29,3.1,3.1,85,0.00,,,0.00,VWS V14.01,2013-05-15 04:31:00,
2013-05-15 00:36:00,60.7,56.2,29.71,NE,51,2.7,3.1,85,0.00,,,0.00,VWS V14.01,2013-05-15 04:36:00,
2013-05-15 00:41:00,60.7,56.2,29.71,NE,52,3.1,3.1,85,0.00,,,0.00,VWS V14.01,2013-05-15 04:41:00,
2013-05-15 00:46:00,60.7,56.2,29.71,NE,34,2.7,3.1,85,0.00,,,0.00,VWS V14.01,2013-05-15 04:46:00,
2013-05-15 00:50:00,60.7,56.2,29.71,NE,46,2.7,3.1,85,0.00,,,0.00,VWS V14.01,2013-05-15 04:50:00,
2013-05-15 00:51:00,60.5,56.0,29.71,NE,46,2.7,2.7,85,0.00,,,0.00,VWS V14.01,2013-05-15 04:51:00,
2013-05-15 00:56:00,60.5,56.0,29.71,NNE,27,3.1,3.1,85,0.00,,,0.00,VWS V14.01,2013-05-15 04:56:00,
2013-05-15 01:00:00,60.7,56.2,29.71,NE,50,2.7,3.6,85,0.00,,,0.00,VWS V14.01,2013-05-15 05:00:00,
2013-05-15 01:01:00,60.7,56.2,29.71,NE,50,2.7,2.7,85,0.00,,,0.00,VWS V14.01,2013-05-15 05:01:00,
2013-05-15 01:06:00,60.7,56.2,29.71,NE,47,3.1,3.1,85,0.00,,,0.00,VWS V14.01,2013-05-15 05:06:00,
2013-05-15 01:10:00,60.7,56.2,29.71,NE,47,2.7,3.1,85,0.00,,,0.00,VWS V14.01,2013-05-15 05:10:00,
2013-05-15 01:11:00,60.7,56.2,29.71,NE,47,2.7,2.7,85,0.00,,,0.00,VWS V14.01,2013-05-15 05:11:00,
2013-05-15 01:16:00,60.9,55.6,29.71,NE,54,4.0,4.0,83,0.00,,,0.00,VWS V14.01,2013-05-15 05:16:00,
2013-05-15 01:20:00,61.1,55.8,29.71,NE,48,3.1,4.0,83,0.00,,,0.00,VWS V14.01,2013-05-15 05:20:00,
2013-05-15 01:21:00,61.1,55.8,29.71,NE,48,3.1,3.1,83,0.00,,,0.00,VWS V14.01,2013-05-15 05:21:00,
2013-05-15 01:26:00,61.1,55.8,29.71,NE,41,3.1,3.1,83,0.00,,,0.00,VWS V14.01,2013-05-15 05:26:00,
2013-05-15 01:30:00,60.9,55.6,29.71,ENE,57,3.6,3.6,83,0.00,,,0.00,VWS V14.01,2013-05-15 05:30:00,
2013-05-15 01:31:00,60.9,55.6,29.71,NNE,23,3.1,3.6,83,0.00,,,0.00,VWS V14.01,2013-05-15 05:31:00,
2013-05-15 01:36:00,60.7,55.5,29.68,NNE,33,2.2,3.6,83,0.00,,,0.00,VWS V14.01,2013-05-15 05:36:00,
2013-05-15 01:40:00,60.5,55.3,29.68,NE,49,0.0,3.6,83,0.00,,,0.00,VWS V14.01,2013-05-15 05:40:00,
2013-05-15 01:41:00,60.5,55.3,29.68,NE,49,0.0,0.0,83,0.00,,,0.00,VWS V14.01,2013-05-15 05:41:00,
2013-05-15 01:46:00,60.3,55.8,29.68,NE,49,0.0,0.0,85,0.00,,,0.00,VWS V14.01,2013-05-15 05:46:00,
2013-05-15 01:51:00,60.2,55.7,29.68,ENE,59,0.0,0.0,85,0.00,,,0.00,VWS V14.01,2013-05-15 05:51:00,
2013-05-15 01:56:00,59.8,55.3,29.68,ENE,58,2.2,3.1,85,0.00,,,0.00,VWS V14.01,2013-05-15 05:56:00,
2013-05-15 02:01:00,59.6,55.9,29.68,ENE,58,0.0,0.0,87,0.00,,,0.00,VWS V14.01,2013-05-15 06:01:00,
2013-05-15 02:06:00,59.6,55.9,29.68,ENE,57,0.0,0.0,87,0.00,,,0.00,VWS V14.01,2013-05-15 06:06:00,
2013-05-15 02:10:00,59.4,56.4,29.68,ENE,57,2.2,2.2,90,0.00,,,0.00,VWS V14.01,2013-05-15 06:10:00,
2013-05-15 02:11:00,59.4,56.4,29.68,ENE,57,2.2,2.2,90,0.00,,,0.00,VWS V14.01,2013-05-15 06:11:00,
2013-05-15 02:16:00,59.4,56.4,29.68,NE,42,0.0,2.2,90,0.00,,,0.00,VWS V14.01,2013-05-15 06:16:00,
2013-05-15 02:20:00,59.3,56.2,29.68,NE,41,0.0,2.2,90,0.00,,,0.00,VWS V14.01,2013-05-15 06:20:00,
2013-05-15 02:21:00,59.3,56.2,29.68,NE,41,2.7,2.7,90,0.00,,,0.00,VWS V14.01,2013-05-15 06:21:00,
2013-05-15 02:26:00,59.3,56.2,29.68,NE,41,2.7,2.7,90,0.00,,,0.00,VWS V14.01,2013-05-15 06:26:00,
2013-05-15 02:31:00,59.3,56.2,29.68,NE,51,0.0,0.0,90,0.00,,,0.00,VWS V14.01,2013-05-15 06:31:00,
2013-05-15 02:36:00,59.1,56.8,29.68,NE,51,2.7,2.7,92,0.00,,,0.00,VWS V14.01,2013-05-15 06:36:00,
2013-05-15 02:41:00,59.1,56.8,29.68,NE,42,2.7,2.7,92,0.00,,,0.00,VWS V14.01,2013-05-15 06:41:00,
2013-05-15 02:46:00,59.1,56.8,29.68,NNE,28,2.7,2.7,92,0.00,,,0.00,VWS V14.01,2013-05-15 06:46:00,
2013-05-15 02:50:00,59.1,56.8,29.68,NNE,28,2.2,2.7,92,0.00,,,0.00,VWS V14.01,2013-05-15 06:50:00,
2013-05-15 02:51:00,59.1,56.8,29.68,ENE,61,3.6,3.6,92,0.00,,,0.00,VWS V14.01,2013-05-15 06:51:00,
2013-05-15 02:56:00,59.1,56.8,29.68,NE,42,4.0,4.0,92,0.00,,,0.00,VWS V14.01,2013-05-15 06:56:00,
2013-05-15 03:00:00,59.1,56.8,29.68,NE,38,2.7,4.0,92,0.00,,,0.00,VWS V14.01,2013-05-15 07:00:00,
2013-05-15 03:01:00,59.1,56.8,29.68,NE,38,2.7,2.7,92,0.00,,,0.00,VWS V14.01,2013-05-15 07:01:00,
2013-05-15 03:06:00,59.1,56.8,29.68,NNE,32,2.7,2.7,92,0.00,,,0.00,VWS V14.01,2013-05-15 07:06:00,
2013-05-15 03:10:00,59.1,56.8,29.68,NNE,32,2.7,2.7,92,0.00,,,0.00,VWS V14.01,2013-05-15 07:10:00,
2013-05-15 03:11:00,59.1,56.8,29.68,NNE,32,2.7,2.7,92,0.00,,,0.00,VWS V14.01,2013-05-15 07:11:00,
2013-05-15 03:16:00,59.1,56.8,29.68,ENE,68,4.0,4.0,92,0.00,,,0.00,VWS V14.01,2013-05-15 07:16:00,
2013-05-15 03:21:00,59.1,56.8,29.68,NE,41,3.1,3.1,92,0.00,,,0.00,VWS V14.01,2013-05-15 07:21:00,
2013-05-15 03:26:00,58.9,57.3,29.68,NNE,24,2.7,3.1,94,0.00,,,0.00,VWS V14.01,2013-05-15 07:26:00,
2013-05-15 03:31:00,58.9,57.3,29.68,NNE,24,2.7,2.7,94,0.00,,,0.00,VWS V14.01,2013-05-15 07:31:00,
2013-05-15 03:36:00,58.9,57.3,29.68,NNE,29,2.7,2.7,94,0.00,,,0.00,VWS V14.01,2013-05-15 07:36:00,
2013-05-15 03:40:00,58.7,57.1,29.68,NE,34,3.1,3.1,94,0.00,,,0.00,VWS V14.01,2013-05-15 07:40:00,
2013-05-15 03:41:00,58.7,57.1,29.68,NE,34,3.1,3.1,94,0.00,,,0.00,VWS V14.01,2013-05-15 07:41:00,
2013-05-15 03:46:00,58.7,57.1,29.68,North,10,2.7,3.1,94,0.00,,,0.00,VWS V14.01,2013-05-15 07:46:00,
2013-05-15 03:50:00,58.7,57.1,29.68,NNE,25,4.0,4.0,94,0.00,,,0.00,VWS V14.01,2013-05-15 07:50:00,
2013-05-15 03:51:00,58.7,57.1,29.68,NNE,25,4.0,4.0,94,0.00,,,0.00,VWS V14.01,2013-05-15 07:51:00,
2013-05-15 03:56:00,58.5,58.2,29.68,NNE,12,2.7,4.0,99,0.00,,,0.00,VWS V14.01,2013-05-15 07:56:00,
2013-05-15 04:00:00,58.5,58.2,29.68,NNE,12,2.7,4.0,99,0.00,,,0.00,VWS V14.01,2013-05-15 08:00:00,
2013-05-15 04:01:00,58.5,58.5,29.68,NNE,18,2.7,2.7,100,0.00,,,0.00,VWS V14.01,2013-05-15 08:01:00,
2013-05-15 04:06:00,58.2,58.2,29.68,NNE,17,2.2,2.7,100,0.00,,,0.00,VWS V14.01,2013-05-15 08:06:00,
2013-05-15 04:10:00,58.2,58.2,29.68,North,10,2.2,2.7,100,0.00,,,0.00,VWS V14.01,2013-05-15 08:10:00,
2013-05-15 04:11:00,58.2,58.2,29.68,North,10,2.2,2.2,100,0.00,,,0.00,VWS V14.01,2013-05-15 08:11:00,
2013-05-15 04:16:00,57.8,57.8,29.68,NNE,20,2.7,2.7,100,0.00,,,0.00,VWS V14.01,2013-05-15 08:16:00,
2013-05-15 04:21:00,58.0,58.0,29.68,NNE,25,3.6,3.6,100,0.00,,,0.00,VWS V14.01,2013-05-15 08:21:00,
2013-05-15 04:26:00,58.0,58.0,29.68,NNE,25,3.6,3.6,100,0.00,,,0.00,VWS V14.01,2013-05-15 08:26:00,
2013-05-15 04:30:00,58.2,58.2,29.68,NE,41,0.0,3.6,100,0.00,,,0.00,VWS V14.01,2013-05-15 08:30:00,
2013-05-15 04:31:00,58.2,58.2,29.68,NE,41,0.0,0.0,100,0.00,,,0.00,VWS V14.01,2013-05-15 08:31:00,
2013-05-15 04:36:00,58.2,58.2,29.68,NE,52,0.0,0.0,100,0.00,,,0.00,VWS V14.01,2013-05-15 08:36:00,
2013-05-15 04:41:00,58.2,58.2,29.68,ENE,58,0.0,2.7,100,0.00,,,0.00,VWS V14.01,2013-05-15 08:41:00,
2013-05-15 04:46:00,58.0,58.0,29.68,North,10,2.7,3.6,100,0.00,,,0.00,VWS V14.01,2013-05-15 08:46:00,
2013-05-15 04:50:00,58.0,58.0,29.68,NE,36,3.6,3.6,100,0.00,,,0.00,VWS V14.01,2013-05-15 08:50:00,
2013-05-15 04:56:00,58.0,58.0,29.68,NNE,33,3.1,3.6,100,0.00,,,0.00,VWS V14.01,2013-05-15 08:56:00,
2013-05-15 05:00:00,58.0,58.0,29.68,NNE,25,3.1,3.6,100,0.00,,,0.00,VWS V14.01,2013-05-15 09:00:00,
2013-05-15 05:01:00,58.0,58.0,29.68,NNE,25,3.1,3.1,100,0.00,,,0.00,VWS V14.01,2013-05-15 09:01:00,
2013-05-15 05:06:00,58.0,58.0,29.68,NNE,25,3.1,4.0,100,0.00,,,0.00,VWS V14.01,2013-05-15 09:06:00,
2013-05-15 05:10:00,57.3,57.3,29.68,NNE,25,3.1,4.0,100,0.00,,,0.00,VWS V14.01,2013-05-15 09:10:00,
2013-05-15 05:11:00,57.3,57.3,29.68,NNE,25,0.0,3.1,100,0.00,,,0.00,VWS V14.01,2013-05-15 09:11:00,
2013-05-15 05:16:00,57.3,57.3,29.68,NNE,25,0.0,3.1,100,0.00,,,0.00,VWS V14.01,2013-05-15 09:16:00,
2013-05-15 05:21:00,57.1,57.1,29.68,NNE,29,0.0,0.0,100,0.00,,,0.00,VWS V14.01,2013-05-15 09:21:00,
2013-05-15 05:26:00,57.1,57.1,29.68,NNE,29,0.0,0.0,100,0.00,,,0.00,VWS V14.01,2013-05-15 09:26:00,
2013-05-15 05:30:00,57.1,57.1,29.68,NNE,29,0.0,0.0,100,0.00,,,0.00,VWS V14.01,2013-05-15 09:30:00,
2013-05-15 05:31:00,56.9,56.9,29.68,NNE,28,0.0,0.0,100,0.00,,,0.00,VWS V14.01,2013-05-15 09:31:00,
2013-05-15 05:36:00,56.9,56.9,29.68,NNE,28,0.0,0.0,100,0.00,,,0.00,VWS V14.01,2013-05-15 09:36:00,
2013-05-15 05:40:00,56.9,56.9,29.68,NE,35,0.0,0.0,100,0.00,,,0.00,VWS V14.01,2013-05-15 09:40:00,
2013-05-15 05:41:00,56.9,56.9,29.68,NE,35,0.0,0.0,100,0.00,,,0.00,VWS V14.01,2013-05-15 09:41:00,
2013-05-15 05:46:00,57.1,57.1,29.68,NNE,33,0.0,0.0,100,0.00,,,0.00,VWS V14.01,2013-05-15 09:46:00,
2013-05-15 05:50:00,57.1,57.1,29.68,NNE,22,0.0,0.0,100,0.00,,,0.00,VWS V14.01,2013-05-15 09:50:00,
2013-05-15 05:51:00,57.1,57.1,29.68,NNE,22,0.0,0.0,100,0.00,,,0.00,VWS V14.01,2013-05-15 09:51:00,
2013-05-15 05:56:00,57.1,57.1,29.68,NE,35,0.0,0.0,100,0.00,,,0.00,VWS V14.01,2013-05-15 09:56:00,
2013-05-15 06:00:00,57.3,57.3,29.68,NE,46,3.6,3.6,100,0.00,,,0.00,VWS V14.01,2013-05-15 10:00:00,
2013-05-15 06:06:00,57.5,57.5,29.68,NE,37,2.2,5.4,100,0.00,,,0.00,VWS V14.01,2013-05-15 10:06:00,
2013-05-15 06:10:00,57.5,57.5,29.68,NE,37,2.2,5.4,100,0.00,,,0.00,VWS V14.01,2013-05-15 10:10:00,
2013-05-15 06:11:00,57.6,57.6,29.68,NE,37,2.2,2.2,100,0.00,,,0.00,VWS V14.01,2013-05-15 10:11:00,
2013-05-15 06:16:00,57.6,57.6,29.68,NNE,32,4.0,4.0,100,0.00,,,0.00,VWS V14.01,2013-05-15 10:16:00,
2013-05-15 06:21:00,57.8,57.8,29.68,ENE,58,3.6,3.6,100,0.00,,,0.00,VWS V14.01,2013-05-15 10:21:00,
2013-05-15 06:26:00,57.8,57.8,29.68,North,9,3.6,3.6,100,0.00,,,0.00,VWS V14.01,2013-05-15 10:26:00,
2013-05-15 06:30:00,58.0,58.0,29.68,NE,49,2.7,4.0,100,0.00,,,0.00,VWS V14.01,2013-05-15 10:30:00,
2013-05-15 06:36:00,57.8,57.8,29.68,NNE,22,2.7,2.7,100,0.00,,,0.00,VWS V14.01,2013-05-15 10:36:00,
2013-05-15 06:41:00,57.8,57.8,29.68,NNE,32,3.1,3.1,100,0.00,,,0.00,VWS V14.01,2013-05-15 10:41:00,
2013-05-15 06:46:00,57.8,57.8,29.68,NE,54,3.6,3.6,100,0.00,,,0.00,VWS V14.01,2013-05-15 10:46:00,
2013-05-15 06:50:00,57.8,57.8,29.68,ENE,57,3.1,3.6,100,0.00,,,0.00,VWS V14.01,2013-05-15 10:50:00,
2013-05-15 06:51:00,57.8,57.8,29.68,ENE,57,3.1,3.1,100,0.00,,,0.00,VWS V14.01,2013-05-15 10:51:00,
2013-05-15 06:56:00,57.8,57.8,29.68,NNE,24,4.0,4.0,100,0.00,,,0.00,VWS V14.01,2013-05-15 10:56:00,
2013-05-15 07:07:00,58.2,58.2,29.68,NE,52,3.6,3.6,100,0.00,,,0.00,VWS V14.01,2013-05-15 11:07:00,
2013-05-15 07:10:00,58.2,58.2,29.68,NE,39,2.7,4.9,100,0.00,,,0.00,VWS V14.01,2013-05-15 11:10:00,
2013-05-15 07:17:00,58.2,58.2,29.68,NE,36,6.3,6.3,100,0.00,,,0.00,VWS V14.01,2013-05-15 11:17:00,
2013-05-15 07:20:00,58.5,58.5,29.68,NE,36,6.3,6.3,100,0.00,,,0.00,VWS V14.01,2013-05-15 11:20:00,
2013-05-15 07:22:00,58.5,58.5,29.68,ENE,70,5.4,6.3,100,0.00,,,0.00,VWS V14.01,2013-05-15 11:22:00,
2013-05-15 07:30:00,58.9,58.9,29.71,NNE,13,3.1,6.3,100,0.00,,,0.00,VWS V14.01,2013-05-15 11:30:00,
2013-05-15 07:32:00,58.9,58.9,29.71,NNE,13,2.7,3.6,100,0.00,,,0.00,VWS V14.01,2013-05-15 11:32:00,
2013-05-15 07:37:00,58.9,58.9,29.71,NNE,23,4.0,4.0,100,0.00,,,0.00,VWS V14.01,2013-05-15 11:37:00,
2013-05-15 07:42:00,58.9,58.9,29.71,NNE,33,3.1,3.1,100,0.00,,,0.00,VWS V14.01,2013-05-15 11:42:00,
2013-05-15 07:47:00,60.0,60.0,29.71,NNE,24,4.0,4.0,100,0.00,,,0.00,VWS V14.01,2013-05-15 11:47:00,
2013-05-15 07:52:00,60.3,60.3,29.71,ENE,65,6.3,6.3,100,0.00,,,0.00,VWS V14.01,2013-05-15 11:52:00,
2013-05-15 07:57:00,61.6,61.6,29.71,ENE,73,4.0,6.3,100,0.00,,,0.00,VWS V14.01,2013-05-15 11:57:00,
2013-05-15 08:00:00,61.6,61.6,29.71,ENE,76,3.6,6.3,100,0.00,,,0.00,VWS V14.01,2013-05-15 12:00:00,
2013-05-15 08:07:00,61.6,61.6,29.71,NNE,32,3.6,4.0,100,0.00,,,0.00,VWS V14.01,2013-05-15 12:07:00,
2013-05-15 08:12:00,63.9,60.9,29.71,East,79,5.4,5.4,90,0.00,,,0.00,VWS V14.01,2013-05-15 12:12:00,
2013-05-15 08:20:00,65.0,61.9,29.71,ENE,74,4.0,5.4,90,0.00,,,0.00,VWS V14.01,2013-05-15 12:20:00,
2013-05-15 08:28:00,65.7,60.4,29.71,ENE,64,8.3,8.3,83,0.00,,,0.00,VWS V14.01,2013-05-15 12:28:00,
2013-05-15 08:33:00,65.7,60.4,29.71,North,11,0.0,8.3,83,0.00,,,0.00,VWS V14.01,2013-05-15 12:33:00,
2013-05-15 08:40:00,67.7,60.7,29.71,ESE,103,8.7,8.7,78,0.00,,,0.00,VWS V14.01,2013-05-15 12:40:00,
2013-05-15 08:43:00,67.7,60.7,29.71,ENE,74,5.8,8.7,78,0.00,,,0.00,VWS V14.01,2013-05-15 12:43:00,
2013-05-15 08:48:00,68.8,60.0,29.71,East,92,5.8,8.7,74,0.00,,,0.00,VWS V14.01,2013-05-15 12:48:00,
2013-05-15 08:53:00,68.8,60.0,29.71,NE,49,6.3,6.3,74,0.00,,,0.00,VWS V14.01,2013-05-15 12:53:00,
2013-05-15 08:58:00,68.8,60.0,29.71,East,88,2.7,6.3,74,0.00,,,0.00,VWS V14.01,2013-05-15 12:58:00,
2013-05-15 09:03:00,70.2,61.4,29.71,ENE,64,0.0,2.7,74,0.00,,,0.00,VWS V14.01,2013-05-15 13:03:00,
2013-05-15 09:08:00,70.2,61.4,29.71,ENE,67,2.7,3.6,74,0.00,,,0.00,VWS V14.01,2013-05-15 13:08:00,
2013-05-15 09:13:00,70.8,61.0,29.71,South,180,4.9,5.8,71,0.00,,,0.00,VWS V14.01,2013-05-15 13:13:00,
2013-05-15 09:18:00,71.0,59.3,29.71,East,97,5.4,5.8,67,0.00,,,0.00,VWS V14.01,2013-05-15 13:18:00,
2013-05-15 09:20:00,71.0,59.3,29.71,East,97,5.4,5.8,67,0.00,,,0.00,VWS V14.01,2013-05-15 13:20:00,
2013-05-15 09:33:00,72.2,59.5,29.71,ENE,62,4.9,4.9,64,0.00,,,0.00,VWS V14.01,2013-05-15 13:33:00,
2013-05-15 09:43:00,73.1,58.3,29.71,East,86,8.1,8.1,60,0.00,,,0.00,VWS V14.01,2013-05-15 13:43:00,
2013-05-15 09:48:00,73.8,59.0,29.71,East,90,3.6,8.1,60,0.00,,,0.00,VWS V14.01,2013-05-15 13:48:00,
2013-05-15 09:50:00,73.8,59.0,29.71,East,90,3.6,8.1,60,0.00,,,0.00,VWS V14.01,2013-05-15 13:50:00,
2013-05-15 09:53:00,73.8,59.0,29.71,ESE,120,4.0,4.9,60,0.00,,,0.00,VWS V14.01,2013-05-15 13:53:00,
2013-05-15 09:58:00,75.1,61.2,29.71,SW,227,2.7,11.0,62,0.00,,,0.00,VWS V14.01,2013-05-15 13:58:00,
2013-05-15 10:00:00,75.1,61.2,29.71,NE,51,4.9,11.0,62,0.00,,,0.00,VWS V14.01,2013-05-15 14:00:00,
2013-05-15 10:03:00,75.1,61.2,29.74,NNW,341,4.9,4.9,62,0.00,,,0.00,VWS V14.01,2013-05-15 14:03:00,
2013-05-15 10:08:00,75.1,61.2,29.74,ENE,61,8.7,8.7,62,0.00,,,0.00,VWS V14.01,2013-05-15 14:08:00,
2013-05-15 10:10:00,75.1,61.2,29.74,ENE,61,8.7,8.7,62,0.00,,,0.00,VWS V14.01,2013-05-15 14:10:00,
2013-05-15 10:13:00,75.5,57.1,29.74,ENE,64,3.1,8.7,53,0.00,,,0.00,VWS V14.01,2013-05-15 14:13:00,
2013-05-15 10:20:00,75.5,57.1,29.74,NNE,32,3.1,8.7,53,0.00,,,0.00,VWS V14.01,2013-05-15 14:20:00,
2013-05-15 10:28:00,76.2,57.8,29.74,East,82,8.1,8.1,53,0.00,,,0.00,VWS V14.01,2013-05-15 14:28:00,
2013-05-15 10:33:00,76.2,57.8,29.74,NE,43,0.0,8.1,53,0.00,,,0.00,VWS V14.01,2013-05-15 14:33:00,
2013-05-15 10:38:00,77.3,56.2,29.74,East,82,6.3,8.1,48,0.00,,,0.00,VWS V14.01,2013-05-15 14:38:00,
2013-05-15 10:40:00,77.3,56.2,29.74,ENE,62,5.8,8.1,48,0.00,,,0.00,VWS V14.01,2013-05-15 14:40:00,
2013-05-15 10:49:00,77.6,57.9,29.74,ENE,70,5.8,5.8,51,0.00,,,0.00,VWS V14.01,2013-05-15 14:49:00,
2013-05-15 10:50:00,77.6,57.9,29.74,ENE,72,5.4,5.8,51,0.00,,,0.00,VWS V14.01,2013-05-15 14:50:00,
2013-05-15 10:54:00,77.6,57.9,29.74,East,81,3.1,5.4,51,0.00,,,0.00,VWS V14.01,2013-05-15 14:54:00,
2013-05-15 11:00:00,78.7,57.5,29.74,East,79,3.6,5.4,48,0.00,,,0.00,VWS V14.01,2013-05-15 15:00:00,
2013-05-15 11:09:00,78.9,57.7,29.74,ENE,61,3.1,8.1,48,0.00,,,0.00,VWS V14.01,2013-05-15 15:09:00,
2013-05-15 11:10:00,78.9,57.7,29.74,ENE,61,3.1,8.1,48,0.00,,,0.00,VWS V14.01,2013-05-15 15:10:00,
2013-05-15 11:14:00,79.1,57.9,29.74,ENE,66,2.2,9.6,48,0.00,,,0.00,VWS V14.01,2013-05-15 15:14:00,
2013-05-15 11:19:00,79.1,57.9,29.71,ESE,106,7.2,9.6,48,0.00,,,0.00,VWS V14.01,2013-05-15 15:19:00,
2013-05-15 11:20:00,79.1,57.9,29.71,ESE,106,7.2,9.6,48,0.00,,,0.00,VWS V14.01,2013-05-15 15:20:00,
2013-05-15 11:24:00,80.1,57.5,29.71,NNE,25,4.0,7.2,46,0.00,,,0.00,VWS V14.01,2013-05-15 15:24:00,
2013-05-15 11:34:00,79.8,57.2,29.71,ENE,74,8.1,8.1,46,0.00,,,0.00,VWS V14.01,2013-05-15 15:34:00,
2013-05-15 11:39:00,80.5,57.8,29.74,East,87,4.0,8.1,46,0.00,,,0.00,VWS V14.01,2013-05-15 15:39:00,
2013-05-15 11:40:00,80.5,57.8,29.74,East,87,4.0,8.1,46,0.00,,,0.00,VWS V14.01,2013-05-15 15:40:00,
2013-05-15 11:44:00,80.7,58.0,29.74,ENE,64,3.6,10.5,46,0.00,,,0.00,VWS V14.01,2013-05-15 15:44:00,
2013-05-15 11:49:00,80.9,58.2,29.71,ENE,59,8.1,10.5,46,0.00,,,0.00,VWS V14.01,2013-05-15 15:49:00,
2013-05-15 11:50:00,80.9,58.2,29.71,ENE,59,8.1,10.5,46,0.00,,,0.00,VWS V14.01,2013-05-15 15:50:00,
2013-05-15 11:59:00,80.5,57.8,29.71,ENE,65,5.8,8.1,46,0.00,,,0.00,VWS V14.01,2013-05-15 15:59:00,
2013-05-15 12:10:00,80.9,58.2,29.71,ESE,105,4.0,5.8,46,0.00,,,0.00,VWS V14.01,2013-05-15 16:10:00,
2013-05-15 12:20:00,81.9,59.2,29.71,NE,37,5.4,5.4,46,0.00,,,0.00,VWS V14.01,2013-05-15 16:20:00,
2013-05-15 12:25:00,81.9,59.2,29.71,North,5,8.3,8.3,46,0.00,,,0.00,VWS V14.01,2013-05-15 16:25:00,
2013-05-15 12:30:00,81.9,59.2,29.71,ENE,66,9.6,9.6,46,0.00,,,0.00,VWS V14.01,2013-05-15 16:30:00,
2013-05-15 12:35:00,81.4,58.7,29.71,NE,39,4.0,9.6,46,0.00,,,0.00,VWS V14.01,2013-05-15 16:35:00,
2013-05-15 12:40:00,81.4,58.7,29.71,ENE,62,6.3,9.6,46,0.00,,,0.00,VWS V14.01,2013-05-15 16:40:00,
2013-05-15 12:50:00,81.9,57.7,29.71,NE,36,6.3,6.3,44,0.00,,,0.00,VWS V14.01,2013-05-15 16:50:00,
2013-05-15 12:56:00,81.8,59.0,29.71,ENE,57,7.6,7.6,46,0.00,,,0.00,VWS V14.01,2013-05-15 16:56:00,
2013-05-15 13:01:00,82.3,58.0,29.71,East,86,3.6,5.8,44,0.00,,,0.00,VWS V14.01,2013-05-15 17:01:00,
2013-05-15 13:06:00,82.3,58.0,29.71,East,96,5.8,5.8,44,0.00,,,0.00,VWS V14.01,2013-05-15 17:06:00,
2013-05-15 13:10:00,82.3,58.0,29.71,East,98,6.3,6.3,44,0.00,,,0.00,VWS V14.01,2013-05-15 17:10:00,
2013-05-15 13:11:00,82.3,58.0,29.71,East,98,6.3,6.3,44,0.00,,,0.00,VWS V14.01,2013-05-15 17:11:00,
2013-05-15 13:20:00,83.2,58.8,29.71,NNE,18,6.3,12.3,44,0.00,,,0.00,VWS V14.01,2013-05-15 17:20:00,
2013-05-15 13:21:00,83.2,58.8,29.71,NNE,18,6.3,6.3,44,0.00,,,0.00,VWS V14.01,2013-05-15 17:21:00,
2013-05-15 13:26:00,83.4,59.0,29.71,ENE,72,3.6,6.3,44,0.00,,,0.00,VWS V14.01,2013-05-15 17:26:00,
2013-05-15 13:31:00,83.4,59.0,29.71,ENE,64,4.0,4.0,44,0.00,,,0.00,VWS V14.01,2013-05-15 17:31:00,
2013-05-15 13:36:00,83.4,59.0,29.68,NNE,26,4.9,5.8,44,0.00,,,0.00,VWS V14.01,2013-05-15 17:36:00,
2013-05-15 13:40:00,83.4,59.0,29.68,NNE,26,4.9,5.8,44,0.00,,,0.00,VWS V14.01,2013-05-15 17:40:00,
2013-05-15 13:41:00,83.4,59.0,29.68,NNE,26,4.9,4.9,44,0.00,,,0.00,VWS V14.01,2013-05-15 17:41:00,
2013-05-15 13:46:00,83.7,59.3,29.68,SSE,164,0.0,4.9,44,0.00,,,0.00,VWS V14.01,2013-05-15 17:46:00,
2013-05-15 13:51:00,83.7,59.3,29.68,NE,49,5.4,6.7,44,0.00,,,0.00,VWS V14.01,2013-05-15 17:51:00,
2013-05-15 13:56:00,83.9,59.5,29.68,ENE,58,5.8,6.7,44,0.00,,,0.00,VWS V14.01,2013-05-15 17:56:00,
2013-05-15 14:00:00,83.9,59.5,29.68,NNE,31,7.6,7.6,44,0.00,,,0.00,VWS V14.01,2013-05-15 18:00:00,
2013-05-15 14:01:00,83.9,59.5,29.68,NNE,31,7.6,7.6,44,0.00,,,0.00,VWS V14.01,2013-05-15 18:01:00,
2013-05-15 14:06:00,83.7,59.3,29.68,NE,49,5.8,7.6,44,0.00,,,0.00,VWS V14.01,2013-05-15 18:06:00,
2013-05-15 14:10:00,83.7,59.3,29.68,South,189,0.0,7.6,44,0.00,,,0.00,VWS V14.01,2013-05-15 18:10:00,
2013-05-15 14:16:00,84.1,59.7,29.68,East,87,5.8,5.8,44,0.00,,,0.00,VWS V14.01,2013-05-15 18:16:00,
2013-05-15 14:21:00,83.7,59.3,29.68,ENE,76,8.1,8.1,44,0.00,,,0.00,VWS V14.01,2013-05-15 18:21:00,
2013-05-15 14:26:00,83.7,59.3,29.68,ENE,70,6.3,8.1,44,0.00,,,0.00,VWS V14.01,2013-05-15 18:26:00,
2013-05-15 14:31:00,83.6,59.2,29.68,NE,51,7.6,7.6,44,0.00,,,0.00,VWS V14.01,2013-05-15 18:31:00,
2013-05-15 14:36:00,83.6,59.2,29.68,SSW,210,6.3,7.6,44,0.00,,,0.00,VWS V14.01,2013-05-15 18:36:00,
2013-05-15 14:41:00,83.9,59.5,29.68,NE,38,6.3,6.3,44,0.00,,,0.00,VWS V14.01,2013-05-15 18:41:00,
2013-05-15 14:46:00,84.6,60.2,29.68,ESE,110,4.0,6.3,44,0.00,,,0.00,VWS V14.01,2013-05-15 18:46:00,
2013-05-15 14:50:00,84.6,60.2,29.68,ENE,75,5.8,6.3,44,0.00,,,0.00,VWS V14.01,2013-05-15 18:50:00,
2013-05-15 14:56:00,85.5,61.0,29.68,ENE,76,3.1,5.8,44,0.00,,,0.00,VWS V14.01,2013-05-15 18:56:00,
2013-05-15 15:01:00,85.7,59.6,29.68,ENE,76,3.1,3.1,41,0.00,,,0.00,VWS V14.01,2013-05-15 19:01:00,
2013-05-15 15:06:00,85.2,59.1,29.65,NNE,23,6.3,6.3,41,0.00,,,0.00,VWS V14.01,2013-05-15 19:06:00,
2013-05-15 15:10:00,84.8,60.3,29.65,NE,54,5.8,6.3,44,0.00,,,0.00,VWS V14.01,2013-05-15 19:10:00,
2013-05-15 15:17:00,84.8,60.3,29.65,ESE,106,3.1,8.3,44,0.00,,,0.00,VWS V14.01,2013-05-15 19:17:00,
2013-05-15 15:27:00,85.5,59.4,29.65,ENE,67,4.0,4.0,41,0.00,,,0.00,VWS V14.01,2013-05-15 19:27:00,
2013-05-15 15:30:00,85.5,59.4,29.65,East,93,5.8,5.8,41,0.00,,,0.00,VWS V14.01,2013-05-15 19:30:00,
2013-05-15 15:37:00,85.7,59.6,29.65,ENE,58,2.7,5.8,41,0.00,,,0.00,VWS V14.01,2013-05-15 19:37:00,
2013-05-15 15:40:00,86.1,59.9,29.65,ENE,58,2.7,5.8,41,0.00,,,0.00,VWS V14.01,2013-05-15 19:40:00,
2013-05-15 15:42:00,86.1,59.9,29.65,North,357,4.0,4.0,41,0.00,,,0.00,VWS V14.01,2013-05-15 19:42:00,
2013-05-15 15:47:00,86.1,59.9,29.65,East,82,3.1,4.9,41,0.00,,,0.00,VWS V14.01,2013-05-15 19:47:00,
2013-05-15 15:52:00,86.3,60.1,29.65,East,82,3.1,3.1,41,0.00,,,0.00,VWS V14.01,2013-05-15 19:52:00,
2013-05-15 15:57:00,86.3,60.1,29.65,East,82,5.4,5.4,41,0.00,,,0.00,VWS V14.01,2013-05-15 19:57:00,
2013-05-15 16:02:00,86.3,60.1,29.65,East,81,3.1,6.7,41,0.00,,,0.00,VWS V14.01,2013-05-15 20:02:00,
2013-05-15 16:07:00,86.3,60.1,29.65,East,81,3.1,6.7,41,0.00,,,0.00,VWS V14.01,2013-05-15 20:07:00,
2013-05-15 16:10:00,86.3,60.1,29.65,NE,56,8.1,8.1,41,0.00,,,0.00,VWS V14.01,2013-05-15 20:10:00,
2013-05-15 16:12:00,86.3,60.1,29.65,NE,48,4.9,8.1,41,0.00,,,0.00,VWS V14.01,2013-05-15 20:12:00,
2013-05-15 16:17:00,85.7,59.6,29.65,East,88,3.1,8.1,41,0.00,,,0.00,VWS V14.01,2013-05-15 20:17:00,
2013-05-15 16:20:00,85.7,59.6,29.65,East,88,3.1,8.1,41,0.00,,,0.00,VWS V14.01,2013-05-15 20:20:00,
2013-05-15 16:27:00,86.1,59.9,29.65,ENE,74,7.6,7.6,41,0.00,,,0.00,VWS V14.01,2013-05-15 20:27:00,
2013-05-15 16:30:00,85.9,59.8,29.65,NNE,33,6.3,7.6,41,0.00,,,0.00,VWS V14.01,2013-05-15 20:30:00,
2013-05-15 16:32:00,85.9,59.8,29.65,NNE,33,6.3,6.3,41,0.00,,,0.00,VWS V14.01,2013-05-15 20:32:00,
2013-05-15 16:37:00,85.7,59.6,29.65,East,85,5.8,6.3,41,0.00,,,0.00,VWS V14.01,2013-05-15 20:37:00,
2013-05-15 16:40:00,86.1,59.9,29.65,ENE,65,4.0,6.3,41,0.00,,,0.00,VWS V14.01,2013-05-15 20:40:00,
2013-05-15 16:42:00,86.3,60.1,29.65,ENE,65,4.0,4.0,41,0.00,,,0.00,VWS V14.01,2013-05-15 20:42:00,
2013-05-15 16:47:00,86.1,59.9,29.65,ENE,65,4.0,4.0,41,0.00,,,0.00,VWS V14.01,2013-05-15 20:47:00,
2013-05-15 16:50:00,86.1,59.9,29.62,East,81,4.0,4.0,41,0.00,,,0.00,VWS V14.01,2013-05-15 20:50:00,
2013-05-15 16:57:00,86.1,59.9,29.62,ENE,59,5.4,5.8,41,0.00,,,0.00,VWS V14.01,2013-05-15 20:57:00,
2013-05-15 17:02:00,86.1,59.9,29.62,ENE,78,5.8,5.8,41,0.00,,,0.00,VWS V14.01,2013-05-15 21:02:00,
2013-05-15 17:07:00,86.4,60.2,29.62,NNE,25,2.7,5.8,41,0.00,,,0.00,VWS V14.01,2013-05-15 21:07:00,
2013-05-15 17:10:00,86.4,60.2,29.62,NNE,25,2.7,5.8,41,0.00,,,0.00,VWS V14.01,2013-05-15 21:10:00,
2013-05-15 17:12:00,86.6,60.4,29.62,NNE,25,2.7,2.7,41,0.00,,,0.00,VWS V14.01,2013-05-15 21:12:00,
2013-05-15 17:20:00,86.6,60.4,29.62,ENE,72,4.9,8.7,41,0.00,,,0.00,VWS V14.01,2013-05-15 21:20:00,
2013-05-15 17:22:00,86.3,60.1,29.62,ENE,72,4.9,4.9,41,0.00,,,0.00,VWS V14.01,2013-05-15 21:22:00,
2013-05-15 17:27:00,86.3,60.1,29.62,ENE,72,4.9,4.9,41,0.00,,,0.00,VWS V14.01,2013-05-15 21:27:00,
2013-05-15 17:37:00,86.1,59.9,29.62,ENE,69,3.6,3.6,41,0.00,,,0.00,VWS V14.01,2013-05-15 21:37:00,
2013-05-15 17:40:00,86.1,59.9,29.62,ENE,69,3.6,3.6,41,0.00,,,0.00,VWS V14.01,2013-05-15 21:40:00,
2013-05-15 17:42:00,86.1,59.9,29.62,East,82,2.7,3.6,41,0.00,,,0.00,VWS V14.01,2013-05-15 21:42:00,
2013-05-15 17:48:00,85.7,59.6,29.62,NNE,33,5.8,8.7,41,0.00,,,0.00,VWS V14.01,2013-05-15 21:48:00,
2013-05-15 17:58:00,85.7,59.6,29.62,NE,53,5.4,5.8,41,0.00,,,0.00,VWS V14.01,2013-05-15 21:58:00,
2013-05-15 18:00:00,85.7,59.6,29.62,East,83,4.9,5.8,41,0.00,,,0.00,VWS V14.01,2013-05-15 22:00:00,
2013-05-15 18:03:00,85.5,59.4,29.62,East,83,4.9,4.9,41,0.00,,,0.00,VWS V14.01,2013-05-15 22:03:00,
2013-05-15 18:08:00,85.7,59.6,29.62,East,83,4.9,4.9,41,0.00,,,0.00,VWS V14.01,2013-05-15 22:08:00,
2013-05-15 18:13:00,85.5,59.4,29.62,ENE,72,5.8,5.8,41,0.00,,,0.00,VWS V14.01,2013-05-15 22:13:00,
2013-05-15 18:18:00,85.2,59.1,29.62,ENE,72,5.8,5.8,41,0.00,,,0.00,VWS V14.01,2013-05-15 22:18:00,
2013-05-15 18:20:00,85.2,59.1,29.62,ENE,72,5.8,5.8,41,0.00,,,0.00,VWS V14.01,2013-05-15 22:20:00,
2013-05-15 18:23:00,84.6,58.6,29.62,NE,43,2.7,5.8,41,0.00,,,0.00,VWS V14.01,2013-05-15 22:23:00,
2013-05-15 18:28:00,84.5,58.5,29.62,ENE,65,4.0,5.8,41,0.00,,,0.00,VWS V14.01,2013-05-15 22:28:00,
2013-05-15 18:33:00,84.3,58.3,29.62,ENE,65,4.0,4.0,41,0.00,,,0.00,VWS V14.01,2013-05-15 22:33:00,
2013-05-15 18:38:00,84.1,58.2,29.62,ENE,70,5.4,6.3,41,0.00,,,0.00,VWS V14.01,2013-05-15 22:38:00,
2013-05-15 18:40:00,83.9,58.0,29.62,ENE,58,4.0,6.3,41,0.00,,,0.00,VWS V14.01,2013-05-15 22:40:00,
2013-05-15 18:43:00,83.9,58.0,29.62,ENE,58,4.0,4.0,41,0.00,,,0.00,VWS V14.01,2013-05-15 22:43:00,
2013-05-15 18:48:00,83.6,59.2,29.62,NNE,20,3.1,4.0,44,0.00,,,0.00,VWS V14.01,2013-05-15 22:48:00,
2013-05-15 18:50:00,83.4,57.5,29.62,NNE,20,3.1,4.0,41,0.00,,,0.00,VWS V14.01,2013-05-15 22:50:00,
2013-05-15 18:58:00,83.2,57.3,29.62,NE,37,2.7,5.8,41,0.00,,,0.00,VWS V14.01,2013-05-15 22:58:00,
2013-05-15 19:00:00,83.0,58.7,29.62,NE,37,2.7,5.8,44,0.00,,,0.00,VWS V14.01,2013-05-15 23:00:00,
2013-05-15 19:10:00,82.7,58.4,29.62,East,97,2.7,6.3,44,0.00,,,0.00,VWS V14.01,2013-05-15 23:10:00,
2013-05-15 19:13:00,82.3,58.0,29.62,ENE,71,2.7,2.7,44,0.00,,,0.00,VWS V14.01,2013-05-15 23:13:00,
2013-05-15 19:18:00,82.1,57.9,29.62,NE,45,3.1,3.6,44,0.00,,,0.00,VWS V14.01,2013-05-15 23:18:00,
2013-05-15 19:20:00,82.1,57.9,29.62,ENE,64,4.0,4.0,44,0.00,,,0.00,VWS V14.01,2013-05-15 23:20:00,
2013-05-15 19:28:00,81.6,57.4,29.62,NE,49,2.7,4.0,44,0.00,,,0.00,VWS V14.01,2013-05-15 23:28:00,
2013-05-15 19:30:00,81.6,57.4,29.62,NE,49,4.0,4.0,44,0.00,,,0.00,VWS V14.01,2013-05-15 23:30:00,
2013-05-15 19:33:00,81.0,58.3,29.62,ENE,60,4.0,4.0,46,0.00,,,0.00,VWS V14.01,2013-05-15 23:33:00,
2013-05-15 19:38:00,80.7,58.0,29.62,ENE,60,0.0,4.0,46,0.00,,,0.00,VWS V14.01,2013-05-15 23:38:00,
2013-05-15 19:40:00,80.1,57.5,29.62,ENE,60,0.0,4.0,46,0.00,,,0.00,VWS V14.01,2013-05-15 23:40:00,
2013-05-15 19:48:00,80.0,57.3,29.62,NE,49,2.7,3.6,46,0.00,,,0.00,VWS V14.01,2013-05-15 23:48:00,
2013-05-15 19:50:00,80.0,57.3,29.62,NE,47,2.2,3.6,46,0.00,,,0.00,VWS V14.01,2013-05-15 23:50:00,
2013-05-15 19:58:00,78.2,57.1,29.62,NE,36,2.2,2.2,48,0.00,,,0.00,VWS V14.01,2013-05-15 23:58:00,
2013-05-15 20:03:00,78.2,57.1,29.62,NE,36,0.0,0.0,48,0.00,,,0.00,VWS V14.01,2013-05-16 00:03:00,
2013-05-15 20:08:00,77.1,57.4,29.62,NE,38,0.0,0.0,51,0.00,,,0.00,VWS V14.01,2013-05-16 00:08:00,
2013-05-15 20:10:00,77.1,57.4,29.62,NE,38,0.0,0.0,51,0.00,,,0.00,VWS V14.01,2013-05-16 00:10:00,
2013-05-15 20:13:00,77.1,57.4,29.62,NE,38,0.0,0.0,51,0.00,,,0.00,VWS V14.01,2013-05-16 00:13:00,
2013-05-15 20:18:00,77.1,57.4,29.62,NE,38,0.0,0.0,51,0.00,,,0.00,VWS V14.01,2013-05-16 00:18:00,
2013-05-15 20:20:00,77.1,57.4,29.62,NE,38,0.0,0.0,51,0.00,,,0.00,VWS V14.01,2013-05-16 00:20:00,
2013-05-15 20:30:00,74.4,60.6,29.62,NE,38,0.0,0.0,62,0.00,,,0.00,VWS V14.01,2013-05-16 00:30:00,
2013-05-15 20:44:00,72.8,62.9,29.62,NE,38,0.0,0.0,71,0.00,,,0.00,VWS V14.01,2013-05-16 00:44:00,
2013-05-15 20:49:00,70.4,63.3,29.62,NE,38,0.0,0.0,78,0.00,,,0.00,VWS V14.01,2013-05-16 00:49:00,
2013-05-15 20:54:00,70.4,63.3,29.62,NE,38,0.0,0.0,78,0.00,,,0.00,VWS V14.01,2013-05-16 00:54:00,
2013-05-15 20:59:00,69.5,64.1,29.62,NE,38,0.0,0.0,83,0.00,,,0.00,VWS V14.01,2013-05-16 00:59:00,
2013-05-15 21:04:00,69.3,63.9,29.62,NE,38,0.0,0.0,83,0.00,,,0.00,VWS V14.01,2013-05-16 01:04:00,
2013-05-15 21:09:00,68.4,64.6,29.62,NE,38,0.0,0.0,87,0.00,,,0.00,VWS V14.01,2013-05-16 01:09:00,
2013-05-15 21:10:00,68.4,64.6,29.62,NE,38,0.0,0.0,87,0.00,,,0.00,VWS V14.01,2013-05-16 01:10:00,
2013-05-15 21:19:00,67.7,65.3,29.62,NE,38,0.0,0.0,92,0.00,,,0.00,VWS V14.01,2013-05-16 01:19:00,
2013-05-15 21:20:00,67.7,65.3,29.62,NE,38,0.0,0.0,92,0.00,,,0.00,VWS V14.01,2013-05-16 01:20:00,
2013-05-15 21:29:00,67.0,66.0,29.62,NE,38,0.0,0.0,97,0.00,,,0.00,VWS V14.01,2013-05-16 01:29:00,
2013-05-15 21:30:00,67.0,66.0,29.62,NE,38,0.0,0.0,97,0.00,,,0.00,VWS V14.01,2013-05-16 01:30:00,
2013-05-15 21:34:00,66.6,66.3,29.65,NE,38,0.0,0.0,99,0.00,,,0.00,VWS V14.01,2013-05-16 01:34:00,
2013-05-15 21:39:00,66.6,66.3,29.65,NE,38,0.0,0.0,99,0.00,,,0.00,VWS V14.01,2013-05-16 01:39:00,
2013-05-15 21:40:00,66.6,66.3,29.65,NE,38,0.0,0.0,99,0.00,,,0.00,VWS V14.01,2013-05-16 01:40:00,
2013-05-15 21:49:00,66.3,66.3,29.65,NE,38,0.0,0.0,100,0.00,,,0.00,VWS V14.01,2013-05-16 01:49:00,
2013-05-15 21:54:00,66.3,66.3,29.65,ENE,57,0.0,0.0,100,0.00,,,0.00,VWS V14.01,2013-05-16 01:54:00,
2013-05-15 22:00:00,66.3,66.3,29.65,ENE,57,0.0,0.0,100,0.00,,,0.00,VWS V14.01,2013-05-16 02:00:00,
2013-05-15 22:05:00,66.3,66.3,29.65,ENE,57,0.0,0.0,100,0.00,,,0.00,VWS V14.01,2013-05-16 02:05:00,
2013-05-15 22:10:00,66.5,66.5,29.65,ENE,57,0.0,0.0,100,0.00,,,0.00,VWS V14.01,2013-05-16 02:10:00,
2013-05-15 22:20:00,66.6,66.6,29.65,ENE,57,0.0,0.0,100,0.00,,,0.00,VWS V14.01,2013-05-16 02:20:00,
2013-05-15 22:25:00,66.6,66.6,29.65,ENE,57,0.0,0.0,100,0.00,,,0.00,VWS V14.01,2013-05-16 02:25:00,
2013-05-15 22:30:00,66.6,66.6,29.65,ENE,57,0.0,0.0,100,0.00,,,0.00,VWS V14.01,2013-05-16 02:30:00,
2013-05-15 22:35:00,67.0,67.0,29.65,NE,56,0.0,0.0,100,0.00,,,0.00,VWS V14.01,2013-05-16 02:35:00,
2013-05-15 22:40:00,67.0,67.0,29.65,NE,56,0.0,0.0,100,0.00,,,0.00,VWS V14.01,2013-05-16 02:40:00,
2013-05-15 22:45:00,67.4,66.4,29.65,NE,43,0.0,0.0,97,0.00,,,0.00,VWS V14.01,2013-05-16 02:45:00,
2013-05-15 22:50:00,67.4,66.4,29.65,NE,43,0.0,0.0,97,0.00,,,0.00,VWS V14.01,2013-05-16 02:50:00,
2013-05-15 22:55:00,67.4,66.4,29.62,NE,43,0.0,0.0,97,0.00,,,0.00,VWS V14.01,2013-05-16 02:55:00,
2013-05-15 23:00:00,68.6,63.2,29.62,NNE,18,2.7,2.7,83,0.00,,,0.00,VWS V14.01,2013-05-16 03:00:00,
2013-05-15 23:10:00,69.7,62.6,29.62,NNE,20,3.1,3.6,78,0.00,,,0.00,VWS V14.01,2013-05-16 03:10:00,
2013-05-15 23:15:00,69.5,62.4,29.62,NE,52,0.0,3.1,78,0.00,,,0.00,VWS V14.01,2013-05-16 03:15:00,
2013-05-15 23:20:00,69.0,62.7,29.62,NE,52,0.0,3.1,80,0.00,,,0.00,VWS V14.01,2013-05-16 03:20:00,
2013-05-15 23:25:00,68.3,62.8,29.62,NE,52,0.0,0.0,83,0.00,,,0.00,VWS V14.01,2013-05-16 03:25:00,
2013-05-15 23:30:00,67.7,63.1,29.62,NE,52,0.0,0.0,85,0.00,,,0.00,VWS V14.01,2013-05-16 03:30:00,
2013-05-15 23:35:00,67.4,63.5,29.62,NE,52,0.0,0.0,87,0.00,,,0.00,VWS V14.01,2013-05-16 03:35:00,
2013-05-15 23:45:00,66.6,64.2,29.62,NNE,27,0.0,0.0,92,0.00,,,0.00,VWS V14.01,2013-05-16 03:45:00,
2013-05-15 23:50:00,66.8,64.4,29.62,NNE,27,0.0,0.0,92,0.00,,,0.00,VWS V14.01,2013-05-16 03:50:00,